Paganella, Italy

12:34 PM CET on February 27, 2017 (GMT +0100)
Paganella

Weather History for LIVP - December, 2012

Change the Weather History Date:

Sunday, December 9, 2012

  Actual Average Record
Temperature  
Mean Temperature 14 °F -  
Max Temperature 21 °F 29 °F 42 °F (2016)
Min Temperature 8 °F 20 °F 8 °F (2012)
Degree Days  
Heating Degree Days 50    
Moisture  
Dew Point -7 °F    
Average Humidity 35    
Maximum Humidity 50    
Minimum Humidity 17    
Precipitation  
Precipitation 0.00 in 0.04 in - ()
Sea Level Pressure  
Sea Level Pressure 29.78 in    
Wind  
Wind Speed 15 mph ()    
Max Wind Speed 28 mph    
Max Gust Speed 41 mph    
Visibility 6.2 miles    
Events Snow    
Averages and records for this station are not official NWS values.
T = Trace of Precipitation, MM = Missing Value Source: Averaged Metar Reports

Daily Weather History Graph

Daily Weather History Graph

Search for Another Location

Airport or City:

Trip Planner

Search our weather history database for the weather conditions in past years. The results will help you decide how hot, cold, wet, or windy it might be!

Date:

Astronomy

Dec. 09, 2012 Rise Set
Actual Time 7:46 AM CET 4:29 PM CET
Civil Twilight 7:12 AM CET 5:04 PM CET
Nautical Twilight 6:34 AM CET 5:42 PM CET
Astronomical Twilight 5:57 AM CET 6:18 PM CET
Moon 2:48 AM CET (12/9) 1:36 PM CET (12/9)
Length of Visible Light 9h 52m
Length of Day
8h 43m
Waning Crescent, 21% of the Moon is Illuminated
Dec 9
Waning Crescent
Dec 13
New
Dec 20
First Quarter
Dec 28
Full
Jan 5
Last Quarter

Hourly Weather History & Observations

Time (CET) Temp. Windchill Dew Point Humidity Pressure Visibility Wind Dir Wind Speed Gust Speed Precip Events Conditions
12:55 AM 10.4 °F -11.0 °F -14.8 °F 31% 29.74 in 6.2 mi North 27.6 mph 40.3 mph N/A Snow Blowing Snow
1:00 AM 10 °F - -15 °F 17%  in 31 mi North 27.6 mph - - Snow Blowing Snow
1:55 AM 8.6 °F -12.7 °F -14.8 °F 34% 29.77 in 6.2 mi North 25.3 mph 36.8 mph N/A Snow Blowing Snow
2:55 AM 8.6 °F -13.4 °F -13.0 °F 37% 29.77 in 6.2 mi North 27.6 mph 41.4 mph N/A Snow Blowing Snow
3:55 AM 8.6 °F -12.3 °F -13.0 °F 37% 29.77 in 6.2 mi North 24.2 mph - N/A Snow Low Drifting Snow
4:00 AM 9 °F - -12 °F 21%  in 31 mi North 24.2 mph - - Snow Low Drifting Snow
4:55 AM 8.6 °F -12.3 °F -11.2 °F 40% 29.77 in 6.2 mi North 24.2 mph - N/A Snow Light Low Drifting Snow
5:55 AM 8.6 °F -11.9 °F -11.2 °F 40% 29.77 in 6.2 mi North 23.0 mph - N/A Snow Light Low Drifting Snow
6:55 AM 10.4 °F -8.2 °F -11.2 °F 37% 29.80 in - North 19.6 mph - N/A   Clear
7:00 AM 10 °F - -12 °F 20%  in 31 mi North 19.6 mph - -   Partly Cloudy
7:55 AM 8.6 °F -7.0 °F -11.2 °F 40% 29.80 in - North 12.7 mph - N/A   Clear
8:55 AM 12.2 °F -3.1 °F -11.2 °F 34% 29.83 in - North 13.8 mph - N/A   Clear
9:55 AM 12.2 °F 0.7 °F -11.2 °F 34% 29.83 in - NNE 8.1 mph - N/A   Clear
10:00 AM 12 °F - -11 °F 20%  in 47 mi NNE 8.1 mph - -  
10:55 AM 14.0 °F 8.2 °F -9.4 °F 35% 29.83 in - Variable 3.5 mph - N/A   Clear
11:55 AM 15.8 °F 6.1 °F -5.8 °F 38% 29.83 in - SSW 6.9 mph - N/A   Clear
12:55 PM 15.8 °F 5.1 °F -5.8 °F 38% 29.83 in - SSW 8.1 mph - N/A   Clear
1:00 PM 15 °F - -6 °F 24%  in 47 mi SSW 8.1 mph - -  
1:55 PM 15.8 °F 7.2 °F -4.0 °F 41% 29.80 in - South 5.8 mph - N/A   Clear
2:55 PM 15.8 °F 7.2 °F -4.0 °F 41% 29.80 in - South 5.8 mph - N/A   Clear
3:55 PM 15.8 °F 6.1 °F -4.0 °F 41% 29.80 in 6.2 mi SSW 6.9 mph - N/A   Partly Cloudy
4:00 PM 16 °F - -5 °F 24%  in 44 mi SSW 6.9 mph - -   Scattered Clouds
4:55 PM 15.8 °F 4.2 °F -7.6 °F 35% 29.80 in 6.2 mi SE 9.2 mph - N/A   Partly Cloudy
5:55 PM 15.8 °F - -7.6 °F 35% 29.80 in - South 2.3 mph - N/A   Clear
6:55 PM 17.6 °F 7.3 °F -4.0 °F 38% 29.77 in - NNE 8.1 mph - N/A   Clear
7:00 PM 17 °F - -3 °F 25%  in 31 mi NNE 8.1 mph - -  
7:55 PM 17.6 °F 12.3 °F -2.2 °F 42% 29.77 in - Variable 3.5 mph - N/A   Clear
8:55 PM 19.4 °F 11.5 °F -0.4 °F 42% 29.74 in - ESE 5.8 mph - N/A   Clear
9:55 PM 19.4 °F 8.6 °F -0.4 °F 42% 29.74 in - SW 9.2 mph - N/A   Clear
10:00 PM 20 °F - 0 °F 27%  in 31 mi SW 9.2 mph - -   Clear
10:55 PM 21.2 °F 10.9 °F 3.2 °F 46% 29.71 in - SW 9.2 mph - N/A   Clear
11:55 PM 21.2 °F 11.7 °F 5.0 °F 50% 29.71 in - West 8.1 mph - N/A   Clear